Location: Poprad
(49.0500°N, 20.3000°E)
Time: 00:34:18
(UTC+02:00)

ISS - Pass Details

Date: 29 March 2019
Orbit: 408 x 410 km, 51.6° (Epoch: 22 April)

Event Time Altitude Azimuth Distance (km) Brightness Sun altitude
Rises 20:05:51 0° 283° (WNW) 2,337 1.4 -19.5°
Reaches altitude 10° 20:07:58 10° 288° (WNW) 1,475 0.1 -19.8°
Maximum altitude 20:11:13 55° 7° (N) 495 -3.4 -20.3°
Enters shadow 20:11:21 55° 18° (NNE) 498 -3.4 -20.3°
